Location: Aranbee
(34.0885°N, 118.2342°W)
Time: 22:52:58
(UTC+00:00)

Tiros 1 - Pass Details

Date: 03 December 2020
Orbit: 630 x 663 km, 48.4° (Epoch: 19 January)

Event Time Altitude Azimuth Distance (km) Brightness Sun altitude
Rises 05:45:05 0° 286° (WNW) 2,964 - -61.6°
Reaches altitude 10° 05:48:47 10° 257° (WSW) 2,040 - -62.3°
Maximum altitude 05:50:40 12° 233° (SW) 1,881 - -62.7°
Drops below altitude 10° 05:52:34 10° 209° (SSW) 2,027 - -63.0°
Sets 05:56:14 0° 179° (S) 2,922 - -63.8°
